FW4758 Weather Reports


Display with metric or nautical units.
time (UTC)temp
F
wind
direction
speed
MPH
gust
MPH
rain 1hr
in
rain 24hr
in
rain mn
in
humidity
%
barometer
mb
20260504050012 64 158 5.0 12.0 0.00 0.00 0.00 64 1014.4
20260504044511 64 175 5.0 11.0 0.00 0.00 0.00 63 1014.5
20260504043017 64 360 5.0 10.0 0.00 0.00 0.00 62 1014.6
20260504041509 65 177 5.0 12.0 0.00 0.00 0.00 61 1014.8
20260504040017 65 178 6.0 11.0 0.00 0.00 0.00 60 1014.8
20260504034509 66 202 6.0 11.0 0.00 0.00 0.00 59 1014.8
20260504033008 66 159 6.0 11.0 0.00 0.00 0.00 58 1014.7
20260504031511 66 148 4.0 9.0 0.00 0.00 0.00 57 1014.8
20260504030008 66 136 6.0 10.0 0.00 0.00 0.00 57 1014.7
20260504024507 66 144 6.0 12.0 0.00 0.00 0.00 56 1014.5
20260504023006 67 157 4.0 9.0 0.00 0.00 0.00 56 1014.5
20260504021505 67 165 5.0 9.0 0.00 0.00 0.00 54 1014.5
20260504020008 68 166 5.0 9.0 0.00 0.00 0.00 53 1014.5
20260504014505 68 154 4.0 10.0 0.00 0.00 0.00 51 1014.5
20260504013005 69 143 5.0 10.0 0.00 0.00 0.00 49 1014.2
20260504011505 70 169 5.0 12.0 0.00 0.00 0.00 47 1014.2
20260504010004 71 160 7.0 14.0 0.00 0.00 0.00 46 1014.2
20260504004509 71 149 7.0 13.0 0.00 0.00 0.00 45 1014.3
20260504003003 73 189 6.0 15.0 0.00 0.00 0.00 44 1014.2
20260504001504 74 200 6.0 15.0 0.00 0.00 0.00 43 1014.3
20260504000002 75 171 7.0 12.0 0.00 0.00 0.00 41 1014.5
20260503234501 76 180 6.0 13.0 0.00 0.00 0.00 40 1014.5
20260503233100 76 163 8.0 13.0 0.00 0.00 0.00 38 1014.4
20260503231604 76 166 7.0 12.0 0.00 0.00 0.00 40 1014.6
20260503230113 77 148 6.0 16.0 0.00 0.00 0.00 40 1014.7
20260503224603 77 169 8.0 15.0 0.00 0.00 0.00 38 1014.9
20260503223055 77 155 6.0 15.0 0.00 0.00 0.00 38 1014.9
20260503221556 78 127 6.0 14.0 0.00 0.00 0.00 40 1015.0
20260503220053 77 190 7.0 15.0 0.00 0.00 0.00 38 1015.3
20260503214551 78 182 8.0 17.0 0.00 0.00 0.00 40 1015.5
20260503213054 78 171 5.0 15.0 0.00 0.00 0.00 42 1015.7
20260503211605 78 211 6.0 13.0 0.00 0.00 0.00 39 1016.0
20260503210045 78 197 8.0 13.0 0.00 0.00 0.00 38 1016.2
20260503204543 78 191 11.0 17.0 0.00 0.00 0.00 35 1016.6
20260503203046 78 186 8.0 17.0 0.00 0.00 0.00 40 1016.8
20260503201539 78 222 5.0 14.0 0.00 0.00 0.00 39 1017.2
20260503200052 78 170 9.0 14.0 0.00 0.00 0.00 38 1017.3
20260503194535 78 204 5.0 13.0 0.00 0.00 0.00 40 1017.5
20260503193036 78 177 9.0 15.0 0.00 0.00 0.00 37 1017.8
20260503191529 78 153 6.0 12.0 0.00 0.00 0.00 41 1018.1
20260503190028 78 208 7.0 15.0 0.00 0.00 0.00 39 1018.4
20260503184538 78 182 8.0 12.0 0.00 0.00 0.00 39 1018.6
20260503183023 77 161 7.0 16.0 0.00 0.00 0.00 42 1018.8
20260503181521 76 215 10.0 17.0 0.00 0.00 0.00 40 1019.0
20260503180038 76 221 8.0 17.0 0.00 0.00 0.00 42 1019.2
20260503174524 76 220 7.0 13.0 0.00 0.00 0.00 47 1019.6
20260503173015 75 212 6.0 12.0 0.00 0.00 0.00 49 1019.8
20260503171511 75 216 7.0 13.0 0.00 0.00 0.00 52 1020.1
20260503081558 55 185 3.0 7.0 0.00 0.01 0.00 77 1018.9
20260503080106 55 203 3.0 7.0 0.00 0.01 0.00 77 1019.0
20260503071557 55 204 3.0 6.0 0.00 0.01 0.00 77 1019.5
20260503054533 59 194 5.0 9.0 0.00 0.01 0.00 70 1019.5
20260503053031 60 184 5.0 9.0 0.00 0.01 0.00 69 1019.4